{"data":{"norad_id":60526,"intl_designator":"2024-149BL","name":"DEIMOS","alt_names":[],"object_type":"PAYLOAD","status":"ACTIVE","operator":null,"country":"US","launch_date":"2024-08-16","launch_site_code":"AFWTR","launch_vehicle":null,"mission":null,"orbit_class":"UNKNOWN","rcs_meters":null,"size_class":null,"mass_kg":null,"dimensions":null,"purposes":[],"wikipedia_slug":null,"has_3d_model":false,"image_url":null,"decayed_at":null,"tle_current":{"epoch":"2026-09-22T16:46:16.406400Z","epoch_age_seconds":99185,"freshness":"FRESH","line1":"1 60526U 24149BL  26265.69880100  .00015529  00000+0  30372-3 0  9991","line2":"2 60526  97.3740 353.4920 0003775 291.8918  68.1931 15.47515878117511","mean_motion":15.47515878,"eccentricity":0.0003775,"inclination_deg":97.374,"raan_deg":353.492,"arg_perigee_deg":291.8918,"mean_anomaly_deg":68.1931,"bstar":0.00030372,"rev_number":11751,"period_min":93.052357036947,"perigee_km":421.42787449494,"apogee_km":426.56348466803,"semimajor_km":6802.1326795815,"source":"CELESTRAK","updated_at":"2026-09-23T09:00:20.667233Z"}}}